Saga Sapphire — 9HOF8 — position and weather

sailwx.info

Track history (hours):
 
Tides and Currents Weather Stations Pressure Air Temp Water Temp Dewpoint Dewpoint Depression Visibility Wind Speed Wind Dir Waves Ship Positions

Saga Sapphire

Last reported at 2014-Jul-22 08:30 UTC. Time now 2014-Jul-22 13:21 UTC.
Position N 57°42' E 011°49'.

Length 200 m; draft 8.6 m.

Type: Passenger vessel. MMSI: 256208000.

Date/timePositionNaut miles runAvg speedWind from/ knotsBaromVisibWave heightAir tempDewpointWater temp
2014-Jul-22 08:30N 57°42' E 011°49'0 0.0
2014-Jul-22 07:30N 57°42' E 011°49'0 0.0
2014-Jul-22 06:33N 57°42' E 011°49'0 0.1
2014-Jul-22 05:33N 57°42' E 011°49'8 7.7
2014-Jul-22 04:33N 57°36' E 011°39'1111.3
2014-Jul-22 03:33N 57°25' E 011°37'1413.7
2014-Jul-22 02:33N 57°11' E 011°38'1413.5
2014-Jul-22 01:30N 56°58' E 011°47'1313.4
2014-Jul-22 00:33N 56°45' E 011°54'1413.8
2014-Jul-21 23:33N 56°33' E 011°42'1413.9
2014-Jul-21 22:33N 56°21' E 011°30'1514.6
2014-Jul-21 21:31N 56°09' E 011°14'1516.0
2014-Jul-21 20:33N 55°56' E 010°59'415.5
2014-Jul-21 20:18N 55°53' E 010°54'6813.9
2014-Jul-21 15:23N 54°45' E 010°47'1214.3
2014-Jul-21 14:33N 54°36' E 011°01'1616.3
2014-Jul-21 13:33N 54°31' E 011°28'1616.4
2014-Jul-21 12:33N 54°26' E 011°55'1313.3
2014-Jul-21 11:33N 54°34' E 012°13'1615.6
2014-Jul-21 10:32N 54°44' E 012°34'1615.8
2014-Jul-21 09:30N 54°51' E 013°00'1515.9
2014-Jul-21 08:33N 54°56' E 013°25'1616.1
2014-Jul-21 07:33N 55°01' E 013°52'1515.4
2014-Jul-21 06:33N 55°11' E 014°13'1616.2
2014-Jul-21 05:33N 55°23' E 014°30'1515.1
2014-Jul-21 04:34N 55°28' E 014°56'1616.2
2014-Jul-21 03:33N 55°29' E 015°24'1615.9
2014-Jul-21 02:33N 55°28' E 015°52'1616.0
2014-Jul-21 01:33N 55°28' E 016°21'1616.2
2014-Jul-21 00:34N 55°29' E 016°49'1616.3
2014-Jul-20 23:33N 55°30' E 017°18'1616.2
2014-Jul-20 22:33N 55°31' E 017°47'1616.4
2014-Jul-20 21:33N 55°33' E 018°16'1616.0
2014-Jul-20 20:33N 55°35' E 018°43'1616.1
2014-Jul-20 19:33N 55°36' E 019°12'1616.0
2014-Jul-20 18:33N 55°38' E 019°40'1616.3
2014-Jul-20 17:33N 55°39' E 020°09'1616.4
2014-Jul-20 16:33N 55°41' E 020°38'1414.0
2014-Jul-20 15:33N 55°44' E 021°02'3 1.6
2014-Jul-20 13:32N 55°42' E 021°07'0 0.0
2014-Jul-20 12:26N 55°42' E 021°07'0 0.0
2014-Jul-20 11:29N 55°42' E 021°07'0 0.0
2014-Jul-20 10:32N 55°42' E 021°07'1 0.4
2014-Jul-20 08:33N 55°43' E 021°07'9 8.6
2014-Jul-20 07:33N 55°48' E 020°54'1413.7
2014-Jul-20 06:34N 55°59' E 020°40'1414.4
2014-Jul-20 05:33N 56°13' E 020°34'1515.3
2014-Jul-20 04:34N 56°28' E 020°34'1515.3
2014-Jul-20 03:33N 56°44' E 020°37'1615.4
2014-Jul-20 02:31N 56°59' E 020°42'1415.1
2014-Jul-20 01:34N 57°13' E 020°52'126 2.4
2014-Jul-17 22:04N 59°14' E 021°54'811.2
2014-Jul-17 21:19N 59°16' E 022°10'911.3
2014-Jul-17 20:30N 59°18' E 022°28'1111.3
2014-Jul-17 19:32N 59°20' E 022°49'1212.6
2014-Jul-17 18:34N 59°23' E 023°13'1514.5
2014-Jul-17 17:34N 59°25' E 023°41'1414.4
2014-Jul-17 16:34N 59°29' E 024°08'59 3.6
2014-Jul-17 00:00N 59°54' E 025°54'1122.1 240 / 81018.227.0 16.512.9
2014-Jul-16 23:29N 59°59' E 026°14'1414.5
2014-Jul-16 22:33N 60°01' E 026°41'10413.1
2014-Jul-16 14:34N 59°57' E 030°09'1 0.3
2014-Jul-16 10:25N 59°57' E 030°12'28 4.5
2014-Jul-16 04:05N 60°02' E 029°16'28 1.3
2014-Jul-15 05:29N 59°57' E 030°12'0 0.0
2014-Jul-15 04:29N 59°57' E 030°12'0 0.5
2014-Jul-15 03:33N 59°57' E 030°11'8411.8
2014-Jul-14 20:27N 60°05' E 027°24'1415.3
2014-Jul-14 19:34N 59°58' E 026°60'1616.1
2014-Jul-14 18:33N 59°58' E 026°27'1916.4
2014-Jul-14 17:26N 59°54' E 025°52'1415.8
2014-Jul-14 16:32N 59°54' E 025°24'1613.6
2014-Jul-14 15:21N 60°02' E 024°55'7 9.3
2014-Jul-14 14:33N 60°09' E 024°55'0 0.2
2014-Jul-14 12:32N 60°09' E 024°55'0 0.0
2014-Jul-14 11:14N 60°09' E 024°55'0 0.0
2014-Jul-14 10:26N 60°09' E 024°55'0 0.0
2014-Jul-14 09:32N 60°09' E 024°55'6 6.2
2014-Jul-14 08:33N 60°03' E 024°54'2814.1
2014-Jul-14 06:33N 59°48' E 024°07'1716.5
2014-Jul-14 05:33N 59°43' E 023°35'1616.3
2014-Jul-14 04:33N 59°39' E 023°04'14913.4
2014-Jul-13 17:24N 59°20' E 018°12'3 0.2
2014-Jul-13 03:09N 59°19' E 018°06'0 0.0
2014-Jul-13 02:33N 59°19' E 018°06'0 0.0
2014-Jul-13 00:33N 59°19' E 018°06'0 0.0
2014-Jul-12 23:21N 59°19' E 018°06'0 0.0
2014-Jul-12 22:27N 59°19' E 018°06'0 0.0
2014-Jul-12 20:21N 59°19' E 018°06'0 0.0
2014-Jul-12 18:15N 59°19' E 018°06'0 0.0
2014-Jul-12 17:21N 59°19' E 018°06'0 0.0
2014-Jul-12 15:19N 59°19' E 018°06'7 6.4
2014-Jul-12 14:18N 59°23' E 018°17'  
Track history (hours):
 
Tides and Currents Weather Stations Pressure Air Temp Water Temp Dewpoint Dewpoint Depression Visibility Wind Speed Wind Dir Waves Ship Positions

Saga Sapphire

Last reported at 2014-Jul-22 08:30 UTC. Time now 2014-Jul-22 13:21 UTC.
Position N 57°42' E 011°49'.

Length 200 m; draft 8.6 m.

Type: Passenger vessel. MMSI: 256208000.

Date/timePositionNaut miles runAvg speedWind from/ knotsBaromVisibWave heightAir tempDewpointWater temp
2014-Jul-22 08:30N 57°42' E 011°49'0 0.0
2014-Jul-22 07:30N 57°42' E 011°49'0 0.0
2014-Jul-22 06:33N 57°42' E 011°49'0 0.1
2014-Jul-22 05:33N 57°42' E 011°49'8 7.7
2014-Jul-22 04:33N 57°36' E 011°39'1111.3
2014-Jul-22 03:33N 57°25' E 011°37'1413.7
2014-Jul-22 02:33N 57°11' E 011°38'1413.5
2014-Jul-22 01:30N 56°58' E 011°47'1313.4
2014-Jul-22 00:33N 56°45' E 011°54'1413.8
2014-Jul-21 23:33N 56°33' E 011°42'1413.9
2014-Jul-21 22:33N 56°21' E 011°30'1514.6
2014-Jul-21 21:31N 56°09' E 011°14'1516.0
2014-Jul-21 20:33N 55°56' E 010°59'415.5
2014-Jul-21 20:18N 55°53' E 010°54'6813.9
2014-Jul-21 15:23N 54°45' E 010°47'1214.3
2014-Jul-21 14:33N 54°36' E 011°01'1616.3
2014-Jul-21 13:33N 54°31' E 011°28'1616.4
2014-Jul-21 12:33N 54°26' E 011°55'1313.3
2014-Jul-21 11:33N 54°34' E 012°13'1615.6
2014-Jul-21 10:32N 54°44' E 012°34'1615.8
2014-Jul-21 09:30N 54°51' E 013°00'1515.9
2014-Jul-21 08:33N 54°56' E 013°25'1616.1
2014-Jul-21 07:33N 55°01' E 013°52'1515.4
2014-Jul-21 06:33N 55°11' E 014°13'1616.2
2014-Jul-21 05:33N 55°23' E 014°30'1515.1
2014-Jul-21 04:34N 55°28' E 014°56'1616.2
2014-Jul-21 03:33N 55°29' E 015°24'1615.9
2014-Jul-21 02:33N 55°28' E 015°52'1616.0
2014-Jul-21 01:33N 55°28' E 016°21'1616.2
2014-Jul-21 00:34N 55°29' E 016°49'1616.3
2014-Jul-20 23:33N 55°30' E 017°18'1616.2
2014-Jul-20 22:33N 55°31' E 017°47'1616.4
2014-Jul-20 21:33N 55°33' E 018°16'1616.0
2014-Jul-20 20:33N 55°35' E 018°43'1616.1
2014-Jul-20 19:33N 55°36' E 019°12'1616.0
2014-Jul-20 18:33N 55°38' E 019°40'1616.3
2014-Jul-20 17:33N 55°39' E 020°09'1616.4
2014-Jul-20 16:33N 55°41' E 020°38'1414.0
2014-Jul-20 15:33N 55°44' E 021°02'3 1.6
2014-Jul-20 13:32N 55°42' E 021°07'0 0.0
2014-Jul-20 12:26N 55°42' E 021°07'0 0.0
2014-Jul-20 11:29N 55°42' E 021°07'0 0.0
2014-Jul-20 10:32N 55°42' E 021°07'1 0.4
2014-Jul-20 08:33N 55°43' E 021°07'9 8.6
2014-Jul-20 07:33N 55°48' E 020°54'1413.7
2014-Jul-20 06:34N 55°59' E 020°40'1414.4
2014-Jul-20 05:33N 56°13' E 020°34'1515.3
2014-Jul-20 04:34N 56°28' E 020°34'1515.3
2014-Jul-20 03:33N 56°44' E 020°37'1615.4
2014-Jul-20 02:31N 56°59' E 020°42'1415.1
2014-Jul-20 01:34N 57°13' E 020°52'126 2.4
2014-Jul-17 22:04N 59°14' E 021°54'811.2
2014-Jul-17 21:19N 59°16' E 022°10'911.3
2014-Jul-17 20:30N 59°18' E 022°28'1111.3
2014-Jul-17 19:32N 59°20' E 022°49'1212.6
2014-Jul-17 18:34N 59°23' E 023°13'1514.5
2014-Jul-17 17:34N 59°25' E 023°41'1414.4
2014-Jul-17 16:34N 59°29' E 024°08'59 3.6
2014-Jul-17 00:00N 59°54' E 025°54'1122.1 240 / 81018.227.0 16.512.9
2014-Jul-16 23:29N 59°59' E 026°14'1414.5
2014-Jul-16 22:33N 60°01' E 026°41'10413.1
2014-Jul-16 14:34N 59°57' E 030°09'1 0.3
2014-Jul-16 10:25N 59°57' E 030°12'28 4.5
2014-Jul-16 04:05N 60°02' E 029°16'28 1.3
2014-Jul-15 05:29N 59°57' E 030°12'0 0.0
2014-Jul-15 04:29N 59°57' E 030°12'0 0.5
2014-Jul-15 03:33N 59°57' E 030°11'8411.8
2014-Jul-14 20:27N 60°05' E 027°24'1415.3
2014-Jul-14 19:34N 59°58' E 026°60'1616.1
2014-Jul-14 18:33N 59°58' E 026°27'1916.4
2014-Jul-14 17:26N 59°54' E 025°52'1415.8
2014-Jul-14 16:32N 59°54' E 025°24'1613.6
2014-Jul-14 15:21N 60°02' E 024°55'7 9.3
2014-Jul-14 14:33N 60°09' E 024°55'0 0.2
2014-Jul-14 12:32N 60°09' E 024°55'0 0.0
2014-Jul-14 11:14N 60°09' E 024°55'0 0.0
2014-Jul-14 10:26N 60°09' E 024°55'0 0.0
2014-Jul-14 09:32N 60°09' E 024°55'6 6.2
2014-Jul-14 08:33N 60°03' E 024°54'2814.1
2014-Jul-14 06:33N 59°48' E 024°07'1716.5
2014-Jul-14 05:33N 59°43' E 023°35'1616.3
2014-Jul-14 04:33N 59°39' E 023°04'14913.4
2014-Jul-13 17:24N 59°20' E 018°12'3 0.2
2014-Jul-13 03:09N 59°19' E 018°06'0 0.0
2014-Jul-13 02:33N 59°19' E 018°06'0 0.0
2014-Jul-13 00:33N 59°19' E 018°06'0 0.0
2014-Jul-12 23:21N 59°19' E 018°06'0 0.0
2014-Jul-12 22:27N 59°19' E 018°06'0 0.0
2014-Jul-12 20:21N 59°19' E 018°06'0 0.0
2014-Jul-12 18:15N 59°19' E 018°06'0 0.0
2014-Jul-12 17:21N 59°19' E 018°06'0 0.0
2014-Jul-12 15:19N 59°19' E 018°06'7 6.4
2014-Jul-12 14:18N 59°23' E 018°17'  

Dump ship's entire track history